Theta_e
313 313 314 315 314 310 309 310 309 316 329 331 332 340 342 343 343 341 341 341 341 341 339 338 338 338 338 338 337 336 335 335 335 334 333 333 332 332 333 333 332 331 330 329 329 331 333 334 334 333 332 332 332 332 331 331 331 331 329 324 320 318 319 325 327 326 329 330 325 324 328 330 330 331 332 332 332 331 332 334 334 334 334 333 332
313 313 315 315 316 315 311 309 309 315 332 338 334 336 339 341 343 342 341 341 341 340 339 338 336 334 337 337 337 337 336 336 336 335 334 333 332 332 332 331 332 332 331 329 328 330 332 333 333 332 333 333 333 332 332 332 331 331 330 328 326 322 319 324 325 324 328 331 328 327 330 331 330 330 332 333 332 332 331 332 333 334 334 334 333
313 313 314 314 315 317 314 310 309 311 322 334 336 334 335 338 341 342 342 341 341 341 339 337 333 332 334 334 336 338 338 337 337 337 336 334 332 330 328 329 331 332 332 331 329 330 332 333 333 333 334 334 333 333 333 332 332 331 331 331 330 327 325 324 321 320 326 330 331 332 332 333 332 332 332 332 331 331 331 332 333 334 334 334 333
313 313 314 314 314 316 315 311 310 309 313 327 336 335 333 335 338 340 341 341 341 341 339 336 334 334 336 336 338 339 338 338 338 337 337 336 334 329 324 326 331 332 332 332 331 330 331 333 334 333 334 334 334 334 333 333 332 332 332 332 331 330 330 328 321 317 324 331 332 331 332 333 334 334 334 333 332 331 332 333 333 333 334 334 334
313 313 313 314 314 315 315 312 311 311 310 318 330 336 334 333 335 338 339 341 342 341 340 339 337 337 337 338 338 338 338 338 338 338 338 337 335 332 324 325 329 330 328 330 332 332 331 332 333 333 334 334 335 334 333 333 333 332 332 332 332 331 332 331 324 316 320 329 332 332 332 333 333 333 335 335 334 333 333 334 334 334 333 333 333
313 314 313 314 314 314 314 313 312 312 312 312 319 329 334 333 333 337 338 339 341 341 341 340 340 340 339 339 339 338 338 338 338 338 339 338 336 334 328 327 330 329 325 326 331 333 332 330 330 332 334 333 334 333 332 333 333 332 332 332 332 331 332 332 325 317 316 321 328 332 333 333 334 334 334 335 335 335 334 333 334 334 333 333 333
314 314 314 315 315 315 315 316 315 314 314 312 312 318 328 334 334 335 336 337 339 341 341 341 341 341 340 340 339 338 338 337 336 335 338 339 337 334 330 330 331 331 327 324 328 331 331 330 328 329 334 334 333 333 332 333 332 332 332 332 332 331 331 332 326 318 316 317 323 328 329 331 333 334 335 334 334 335 334 333 334 333 333 333 333
315 314 315 316 316 317 317 317 318 317 314 313 313 311 317 329 335 335 334 335 337 339 341 341 341 341 341 341 340 339 338 335 333 334 337 339 338 335 333 332 331 331 330 326 327 328 327 329 329 328 332 334 333 333 332 333 333 333 332 331 332 332 331 332 330 324 322 324 327 327 327 330 332 333 333 333 333 334 335 334 334 334 333 333 332
314 314 315 316 316 317 318 318 318 317 314 313 314 312 310 320 333 336 335 335 336 338 340 340 340 341 340 341 341 340 339 335 332 336 338 339 338 336 334 334 332 331 331 328 329 328 325 327 327 326 330 333 333 333 333 333 333 332 333 331 331 333 331 331 332 331 329 330 332 330 328 330 333 333 332 333 334 334 335 335 333 334 334 333 332
314 314 315 315 316 317 317 317 317 316 315 314 314 314 311 312 325 335 336 336 337 337 339 340 340 340 340 341 341 340 340 337 334 337 339 339 339 337 334 334 334 331 330 331 332 331 326 325 325 321 324 331 333 333 333 332 332 332 333 332 331 333 333 330 331 334 334 334 334 333 331 332 334 334 334 334 335 335 335 335 334 334 335 334 334
314 315 315 315 316 317 316 316 316 314 314 315 315 316 314 310 318 332 336 336 338 337 337 339 340 341 340 340 340 340 341 339 337 337 339 338 339 338 335 335 336 334 332 334 336 335 331 328 328 322 318 324 329 332 333 332 332 333 332 332 331 332 334 333 333 335 335 335 335 334 334 335 335 335 336 336 336 336 336 335 335 335 334 335 335
315 315 315 316 316 316 315 314 313 314 313 314 314 316 317 314 314 326 335 336 338 338 336 337 339 340 340 340 340 341 341 340 337 336 337 339 338 338 337 336 337 336 336 337 337 337 335 332 332 330 324 320 322 326 330 332 332 333 332 331 331 332 333 334 334 335 334 335 336 334 333 335 336 336 337 337 337 337 337 336 336 335 335 335 335
315 315 315 316 317 317 316 315 314 314 314 313 314 315 318 318 316 321 333 336 336 338 338 337 338 339 340 341 341 341 342 342 338 334 335 337 337 337 338 338 338 338 338 339 338 338 336 334 334 334 331 325 320 319 325 331 333 333 333 332 332 332 333 334 334 333 332 333 334 333 332 333 335 336 337 337 337 337 337 336 335 334 335 335 334
314 315 316 316 317 317 317 317 316 316 315 313 314 316 316 319 320 319 327 335 336 336 338 337 337 338 339 340 342 341 342 342 339 336 335 334 336 337 338 340 339 337 337 339 339 338 337 334 334 334 334 332 327 323 325 329 331 332 333 333 332 333 334 333 331 331 331 332 332 331 331 333 334 335 336 337 337 337 337 336 335 335 335 336 335
314 314 315 316 316 317 317 318 317 317 317 315 315 317 316 317 321 322 321 330 337 336 337 337 336 338 339 339 341 342 342 342 340 339 337 333 333 335 337 341 339 335 337 340 340 339 337 335 334 334 334 334 332 329 329 329 329 330 333 333 331 331 333 332 331 331 332 332 331 330 330 332 333 334 335 335 336 337 337 336 337 336 336 336 336
313 314 315 315 316 316 317 317 317 317 318 317 316 316 316 314 320 325 322 324 334 338 337 337 336 337 340 339 340 341 342 342 341 340 338 332 329 332 334 339 338 336 339 341 340 339 338 336 336 335 335 335 333 331 332 331 331 332 334 333 331 330 332 333 333 333 333 333 332 331 331 331 333 334 333 333 334 334 335 336 337 336 336 336 336
312 313 313 314 315 315 315 316 317 317 317 318 317 316 316 314 317 325 326 322 329 336 336 337 338 337 339 340 340 341 342 342 342 341 338 331 329 331 331 334 336 336 339 340 340 340 339 338 338 337 336 336 335 333 333 332 333 334 335 335 333 333 334 334 335 335 334 334 333 333 332 332 333 334 333 333 333 332 333 334 335 336 336 335 335
311 312 312 313 313 314 314 315 315 316 317 318 318 317 316 315 315 322 328 326 326 334 336 335 337 337 338 340 341 340 341 342 341 340 339 334 329 330 330 330 331 333 335 337 338 340 340 339 339 338 338 337 336 335 335 333 334 335 335 335 334 334 335 335 335 335 335 335 334 334 334 333 333 333 333 333 332 332 333 333 333 334 336 336 335
310 311 311 312 313 312 313 314 314 315 316 317 319 318 317 317 316 319 327 329 327 332 336 334 336 337 337 338 340 339 340 342 341 340 339 336 329 328 330 328 328 331 333 334 338 340 340 340 340 340 339 338 338 337 336 335 335 335 334 334 334 335 335 335 335 335 335 335 334 332 332 333 332 332 333 332 331 332 332 333 332 332 334 336 336
310 310 310 311 311 312 312 313 314 314 316 317 318 319 318 319 318 317 324 330 330 332 335 334 336 337 335 335 338 339 340 341 342 340 340 338 334 331 331 328 327 331 334 334 336 339 339 340 341 341 341 340 338 337 337 337 336 335 335 335 335 335 336 335 335 335 335 335 333 328 327 331 332 332 333 332 332 332 332 332 332 331 332 335 335
309 309 310 310 310 311 311 312 313 314 315 316 317 318 318 319 319 316 320 328 331 333 334 335 336 336 334 334 336 338 339 340 342 341 340 340 338 335 332 330 330 331 333 335 336 338 339 340 341 341 341 341 339 337 336 337 337 337 336 336 335 335 336 336 336 335 335 336 334 329 327 329 331 332 332 331 331 332 332 331 331 331 332 334 335
309 309 309 309 309 310 311 311 312 313 314 316 317 317 317 319 318 317 317 323 329 333 334 334 336 336 335 334 335 337 339 340 340 340 340 341 340 339 336 335 334 331 329 332 335 336 337 339 340 340 340 340 339 338 337 338 338 337 337 336 336 336 336 336 336 336 336 336 335 333 331 330 330 331 332 331 331 332 331 331 331 331 332 333 334
309 308 308 309 309 309 310 310 311 312 313 314 316 316 317 317 318 318 317 319 325 331 334 334 335 335 335 335 336 337 339 339 338 339 341 341 341 341 340 339 337 333 328 327 331 333 335 338 340 340 340 340 340 339 339 340 339 338 337 337 337 337 337 336 336 336 336 336 336 335 334 333 332 332 331 330 329 330 331 331 331 331 332 332 333
308 308 308 308 308 309 309 309 310 310 312 313 314 315 315 316 318 319 317 316 322 329 334 335 333 333 334 336 337 338 339 339 338 338 339 340 340 340 340 340 339 336 331 324 327 333 336 337 337 337 337 339 340 340 340 340 340 339 338 338 338 337 337 337 337 337 336 336 336 336 336 335 334 334 333 331 327 326 328 330 331 332 332 332 332
308 308 308 308 308 308 308 308 309 309 310 312 313 314 315 315 317 319 317 316 318 325 332 336 334 332 333 335 337 338 339 339 339 339 339 339 340 340 340 340 339 338 335 329 329 333 336 333 331 331 332 334 338 340 339 340 340 339 338 338 338 337 337 337 337 337 336 336 336 336 335 335 335 334 335 334 331 326 325 327 328 330 331 332 332
309 308 308 308 308 308 307 308 308 308 309 310 311 313 314 315 316 317 318 318 317 321 329 335 336 335 334 335 335 337 338 338 338 339 339 340 341 340 340 341 340 339 338 337 336 335 335 332 328 328 329 331 336 339 339 339 340 339 339 338 337 337 337 338 337 337 337 336 336 336 336 335 335 335 335 335 335 333 330 328 328 328 330 331 332
309 308 307 308 308 307 307 307 307 307 308 309 310 311 313 314 315 316 319 320 317 318 325 332 336 337 336 334 334 336 338 338 337 337 338 340 341 341 339 340 340 339 339 339 337 334 334 332 328 327 329 331 336 339 338 339 340 339 339 338 338 338 337 337 338 337 337 337 337 336 336 336 336 336 335 335 335 334 333 332 332 332 332 332 332
308 307 307 308 307 307 306 306 306 307 307 308 309 311 312 313 315 316 319 321 319 317 322 327 332 336 336 331 328 331 335 338 338 336 336 338 339 339 339 339 339 340 339 338 335 333 332 328 326 327 327 329 335 338 338 338 339 339 339 338 338 338 338 338 338 338 338 338 337 336 335 336 337 336 335 336 336 335 334 333 334 334 334 334 334
307 307 307 308 307 306 306 306 306 306 306 307 308 310 311 312 315 317 320 321 321 319 319 322 326 332 335 333 329 329 333 337 338 337 337 338 337 338 339 339 339 340 340 337 336 335 332 327 324 326 326 327 333 336 335 335 338 339 339 338 337 338 338 338 338 338 338 338 338 336 335 335 336 336 335 336 336 335 336 336 335 335 334 335 335
307 307 308 308 307 306 305 305 306 305 306 306 307 308 310 311 314 317 320 321 321 321 319 319 323 327 332 336 335 334 334 337 339 339 338 339 339 338 338 339 339 339 339 338 337 336 332 327 325 326 326 327 331 333 331 329 333 337 338 338 337 338 338 338 338 338 338 338 338 337 337 336 335 335 335 335 334 335 335 336 337 336 336 335 335
307 307 308 307 307 306 305 305 305 305 305 305 306 307 309 311 313 315 318 319 320 321 320 320 323 325 329 333 335 335 335 336 338 339 339 339 339 338 338 339 340 340 339 339 337 333 328 324 325 326 326 327 329 330 328 326 329 333 337 338 337 338 338 339 339 338 338 338 338 338 338 336 334 333 333 333 333 333 334 335 336 337 337 336 336
307 307 307 307 306 305 305 304 304 304 305 304 305 306 308 311 313 314 316 318 320 321 322 322 324 326 328 330 333 335 335 336 337 339 339 340 340 339 339 340 340 340 340 339 338 335 331 326 325 326 327 328 329 329 327 326 327 329 334 338 337 337 338 338 338 338 338 338 338 339 338 337 333 332 331 331 331 332 333 335 336 336 336 336 336
307 307 307 306 306 305 304 304 304 304 304 303 304 304 307 311 313 313 314 317 319 320 322 322 324 325 327 329 331 332 334 335 336 336 338 339 339 339 340 340 340 340 340 339 339 338 337 333 330 329 329 328 329 330 328 326 326 328 332 336 337 337 337 337 337 338 338 338 338 338 338 336 331 329 329 329 329 330 331 334 336 336 337 337 336
307 307 306 306 305 305 305 304 303 303 303 303 303 304 306 310 312 312 314 316 317 319 320 321 323 324 325 327 328 330 331 332 333 333 333 336 338 338 338 339 339 339 339 339 338 338 338 337 334 333 333 331 332 334 333 328 324 328 332 334 336 337 337 337 337 336 336 337 336 336 335 332 329 329 329 328 328 328 329 333 336 337 337 338 338
306 306 306 305 305 305 305 304 302 302 302 302 303 303 305 308 310 311 313 314 315 317 318 320 321 323 324 325 326 328 329 330 332 333 333 333 335 336 337 338 339 339 338 339 338 337 338 337 336 336 335 333 334 337 337 334 330 331 333 333 334 337 338 338 338 338 338 339 339 337 334 330 329 329 328 327 327 327 327 330 334 336 337 338 339
306 306 306 305 304 305 305 303 302 302 301 302 303 303 304 307 308 310 311 313 314 315 316 318 319 320 322 323 325 326 328 329 332 333 334 333 333 334 336 337 337 338 338 339 338 337 337 337 337 336 336 335 334 335 336 337 336 335 335 335 335 336 337 338 338 337 337 338 340 339 336 333 330 329 328 327 326 326 328 330 333 334 336 338 339
306 306 305 304 304 305 305 304 304 303 301 302 303 303 303 305 306 308 310 311 312 313 313 316 318 319 319 321 322 323 325 327 330 331 333 333 334 335 336 336 336 337 338 338 338 338 338 337 337 336 335 335 335 335 337 337 337 337 337 336 336 335 336 337 338 337 336 337 339 339 338 338 336 332 330 327 326 326 327 331 334 333 334 337 337
306 305 304 304 304 305 306 306 306 305 304 302 302 302 302 304 305 307 308 309 310 311 312 314 316 317 318 319 320 321 322 325 327 329 331 332 333 334 334 334 335 337 337 337 338 338 337 337 337 336 336 336 336 337 338 337 336 336 336 336 336 335 336 336 337 337 336 337 338 337 337 338 337 335 331 328 327 327 328 332 334 333 334 335 333
306 304 304 304 304 304 305 306 306 307 306 303 301 301 302 303 304 305 307 309 310 310 311 313 314 316 316 317 318 319 320 321 324 326 328 330 331 333 333 333 334 335 336 337 337 338 337 337 337 337 338 337 337 339 339 336 334 334 334 335 335 336 336 336 335 333 333 335 337 337 336 335 333 332 331 329 328 329 330 332 332 334 337 335 330
306 304 303 303 303 303 304 304 305 306 306 304 303 301 301 302 303 303 305 308 310 311 312 312 313 315 316 316 316 317 318 319 320 322 325 327 329 330 332 332 333 334 335 335 336 337 337 337 336 337 338 338 337 338 337 334 332 333 333 333 333 334 335 333 330 328 331 335 337 337 336 335 332 330 331 332 333 333 334 335 335 337 337 335 332
305 304 303 303 303 303 302 302 304 306 305 305 304 302 301 302 304 304 305 306 308 310 311 311 312 313 313 315 316 316 317 317 318 319 321 323 325 327 329 330 331 333 334 335 336 336 336 336 336 337 337 337 336 336 336 335 333 332 331 331 330 329 330 328 326 328 332 335 336 336 336 335 333 330 332 334 336 336 336 337 338 338 338 336 337
305 304 303 304 304 303 302 302 303 305 306 306 306 305 305 305 305 306 307 307 306 307 309 310 311 311 312 313 315 316 316 317 317 318 318 319 321 323 326 328 329 331 332 334 335 335 336 336 336 336 336 334 332 333 333 333 331 329 328 330 329 326 324 325 328 330 332 334 335 335 335 334 334 334 334 334 334 335 337 338 338 338 338 339 340
305 303 303 303 303 303 303 302 302 304 306 306 306 307 307 307 307 308 309 308 307 307 307 308 308 309 310 311 312 314 315 316 317 317 317 318 318 319 323 326 327 328 329 331 332 333 335 335 334 333 332 330 329 330 329 326 326 326 327 327 327 325 324 327 331 332 332 333 334 334 334 333 333 333 332 332 332 333 335 336 335 335 337 338 340
304 303 303 303 303 303 303 302 302 303 305 306 307 307 307 308 308 309 309 309 308 308 308 307 307 307 308 309 310 311 312 314 315 316 317 317 317 317 320 324 327 328 329 330 330 331 333 333 332 332 332 331 331 330 327 323 323 327 328 327 326 326 327 330 332 333 333 335 336 337 336 335 334 333 333 333 334 334 335 334 334 334 334 336 338
303 303 303 303 303 303 303 303 302 303 304 306 307 307 307 307 308 308 308 309 309 308 308 308 307 306 306 306 307 308 309 310 312 315 316 317 318 318 319 322 326 327 328 329 329 330 331 332 332 332 332 332 333 333 332 331 329 329 329 328 328 329 330 333 334 335 335 336 336 336 336 336 336 336 335 335 335 336 336 335 335 335 335 336 337
303 303 303 303 303 303 303 303 303 303 304 305 307 307 307 307 307 308 308 308 309 309 309 309 308 307 306 304 304 305 306 306 308 311 314 316 318 320 321 322 323 324 325 326 327 329 330 331 331 331 332 333 333 333 334 334 332 331 330 329 329 330 332 334 335 335 335 334 334 334 334 335 336 335 335 335 335 336 336 336 336 336 335 336 336
302 302 302 302 302 302 302 303 302 302 303 304 306 307 307 307 307 307 308 308 308 308 308 308 307 305 304 303 302 303 303 303 305 308 312 315 317 319 321 323 323 322 323 324 324 325 327 328 330 331 332 333 333 333 333 332 331 331 330 329 329 330 330 332 333 333 333 333 332 333 333 334 334 335 334 334 335 334 334 334 334 335 335 335 335
302 302 302 302 302 302 302 302 302 302 303 304 305 306 306 306 306 307 308 308 307 306 305 304 303 302 301 301 301 301 301 302 303 306 310 314 317 319 320 321 322 322 322 323 323 324 325 327 328 329 330 331 331 331 332 332 331 330 330 328 326 326 327 327 327 328 329 329 330 330 331 332 333 333 333 333 333 333 333 333 333 333 333 334 334
301 302 302 301 301 301 301 302 301 302 303 304 305 306 305 306 306 307 307 306 304 303 302 300 300 300 300 301 301 301 301 301 302 305 309 314 317 319 321 321 321 322 321 322 323 325 327 327 327 327 327 329 330 330 331 331 329 327 328 327 324 323 323 323 324 326 327 327 328 329 330 331 332 332 333 333 333 333 333 332 332 331 331 331 332
301 301 301 301 301 301 301 301 301 302 302 304 305 305 305 305 305 306 306 303 302 301 300 298 298 299 300 301 304 305 304 302 302 306 310 313 315 318 321 321 321 321 321 320 320 322 324 326 327 327 327 327 328 329 329 329 328 327 326 326 325 324 324 324 326 327 327 328 328 329 330 330 331 331 332 332 333 333 333 333 332 332 331 330 330
300 300 300 300 300 300 300 301 301 301 302 303 304 305 305 305 305 306 306 302 300 299 298 297 297 299 300 301 305 307 305 303 303 308 311 313 314 316 318 319 319 319 319 319 318 318 319 320 323 325 325 324 324 324 324 325 325 324 323 324 325 325 325 326 327 327 327 327 328 328 328 329 330 331 331 331 332 332 333 333 332 332 332 332 332
Wind_Speed
13 14 13 13 15 16 15 15 12 9 13 17 18 20 23 23 24 27 27 28 29 28 28 29 27 26 25 23 23 22 20 16 17 18 17 17 17 17 17 17 16 18 19 20 20 20 20 20 18 18 20 21 21 20 18 17 18 17 18 25 29 31 30 24 21 20 17 16 18 19 16 15 17 16 16 17 17 16 16 16 15 14 15 15 16
13 14 14 13 13 15 16 15 13 10 11 16 18 19 21 23 25 29 28 28 29 28 27 28 30 32 29 26 28 25 21 19 18 17 17 17 17 17 18 17 17 18 19 20 21 21 21 21 21 20 20 21 21 20 19 18 19 18 17 19 22 27 31 27 25 23 19 16 16 15 14 13 16 17 16 17 18 18 18 18 17 16 15 15 16
14 15 17 16 13 13 15 16 14 12 10 14 18 18 20 22 24 27 28 28 29 29 29 29 30 32 29 28 28 24 19 19 18 16 17 19 20 21 21 20 18 18 18 20 21 21 22 23 23 22 20 22 21 21 21 20 20 19 18 17 17 21 25 26 30 28 20 16 14 12 12 12 13 15 16 17 19 19 18 17 17 17 16 16 16
15 16 18 18 17 14 15 18 17 14 11 11 16 19 20 22 23 25 27 29 29 30 32 32 30 29 28 27 26 23 19 17 17 16 17 20 23 27 28 24 20 19 19 19 19 20 21 22 22 21 21 22 22 21 21 21 21 20 19 18 18 20 21 22 29 31 22 17 15 14 12 11 12 12 12 14 17 17 17 17 16 16 15 16 16
15 17 18 19 19 17 17 18 18 17 14 11 13 18 21 22 22 23 27 29 30 31 32 30 30 29 29 28 25 23 20 18 19 19 20 22 23 28 30 27 22 21 23 22 20 20 20 20 20 21 22 22 22 22 22 21 21 20 20 19 18 20 20 18 24 31 28 21 16 14 11 10 12 10 9 10 12 13 14 15 16 15 14 15 17
14 15 17 18 19 19 17 16 16 17 17 15 13 17 20 21 21 22 25 29 31 33 32 30 31 31 31 33 30 26 24 23 25 26 26 26 24 26 29 26 23 23 26 27 23 20 19 21 22 22 22 23 24 22 20 19 21 21 20 19 18 20 19 18 23 28 30 27 22 17 13 11 10 8 8 8 9 10 11 13 15 16 16 16 17
16 15 16 17 18 19 18 17 16 16 18 18 16 16 19 21 22 23 25 27 28 31 32 31 34 33 33 36 33 30 28 26 29 29 27 28 26 26 26 24 22 22 26 29 26 24 21 21 24 24 23 23 24 22 19 19 20 20 20 20 19 20 19 19 23 27 28 28 25 21 19 16 12 10 9 8 7 9 9 10 12 15 16 16 16
17 17 17 18 18 19 19 18 17 17 17 19 18 16 18 20 23 24 25 26 25 29 32 33 36 36 36 37 35 34 33 29 28 27 25 27 25 23 22 22 22 21 23 27 27 26 25 22 23 25 24 23 24 22 20 19 19 20 21 22 20 20 20 18 20 23 24 23 21 20 20 19 17 15 14 12 11 10 9 9 11 13 14 16 16
16 17 17 18 19 19 19 18 17 17 16 16 16 16 17 19 22 24 25 25 26 28 30 32 37 37 38 41 40 39 36 31 29 25 20 21 21 21 20 20 23 23 22 25 26 27 28 25 23 24 23 23 23 22 22 21 20 21 22 21 20 19 20 19 18 19 19 18 17 18 19 19 18 17 17 15 14 13 12 12 12 12 13 14 14
17 17 17 18 19 19 19 19 18 17 17 15 14 14 15 18 21 23 26 26 26 28 29 31 35 36 38 41 42 40 36 34 31 25 21 20 20 20 23 23 24 25 24 24 24 26 29 28 25 27 26 23 23 23 24 24 22 22 22 21 21 19 18 19 19 17 17 17 16 16 17 18 18 17 16 16 15 14 14 14 12 12 13 14 13
18 18 17 19 21 21 21 20 19 18 18 18 15 12 12 16 21 23 26 27 26 28 30 30 32 34 36 38 39 38 38 38 33 27 25 25 22 21 23 25 25 25 25 24 22 23 27 28 26 29 31 27 25 24 24 23 22 22 23 22 22 20 18 17 18 17 17 18 17 18 18 17 17 17 15 15 14 14 14 14 13 12 14 13 12
20 19 19 21 22 24 24 23 22 21 20 21 19 15 11 13 20 23 24 27 29 29 30 32 33 33 35 37 40 40 41 40 36 32 29 26 24 23 22 23 25 24 22 21 21 21 24 28 26 27 33 33 30 28 25 22 22 22 22 22 23 22 20 18 17 17 18 18 18 20 20 19 19 17 15 14 15 14 14 14 14 13 14 13 11
20 19 20 21 22 24 26 25 24 24 23 22 22 20 16 11 17 23 24 26 30 31 31 33 34 34 35 38 40 43 43 42 39 36 34 29 25 25 23 21 23 23 21 20 19 21 25 29 26 24 27 31 32 32 29 24 22 22 22 22 22 22 21 20 17 18 19 19 19 21 22 22 21 19 16 16 16 15 15 17 16 15 15 14 12
20 20 20 20 21 23 24 25 25 25 25 24 23 22 21 17 13 21 26 26 28 32 32 32 34 34 36 38 38 40 42 44 41 36 36 35 30 27 23 21 22 23 23 20 18 21 28 30 27 24 22 23 28 33 32 28 25 25 23 23 23 21 21 20 20 19 19 18 19 21 21 22 21 21 19 19 17 16 16 16 16 15 15 15 14
22 21 20 20 22 22 23 24 25 25 25 26 24 23 22 22 17 17 26 27 28 31 33 34 34 34 36 38 38 37 36 39 40 37 37 39 36 31 25 22 24 25 22 18 17 21 30 31 28 29 25 23 29 32 32 31 30 27 24 23 25 24 22 21 20 19 19 18 19 20 20 22 22 21 21 21 19 18 17 16 15 15 16 15 14
25 23 22 22 22 22 22 23 24 25 25 26 25 24 23 24 21 17 22 29 28 30 33 35 34 34 36 39 39 36 34 34 35 36 38 40 41 38 30 25 26 26 19 16 17 21 29 28 25 27 27 25 31 33 31 31 30 26 24 23 25 26 24 22 20 19 19 19 20 19 20 22 21 19 20 21 20 20 19 17 16 17 17 16 14
27 25 24 24 23 23 24 24 24 25 26 26 26 25 23 24 23 19 18 27 30 30 32 33 33 34 37 39 39 36 36 35 32 31 34 40 43 39 32 28 27 26 21 18 20 21 23 23 21 23 25 25 30 32 31 31 28 25 23 23 25 25 24 23 22 21 19 18 19 19 19 21 21 20 19 19 20 20 19 19 18 18 18 17 15
28 26 25 24 24 25 25 25 25 25 25 25 25 25 23 23 23 21 17 22 29 31 32 34 33 34 36 38 39 38 37 35 32 29 29 37 43 38 32 32 31 30 26 23 23 21 20 21 20 21 22 22 26 29 28 28 27 26 25 24 25 25 24 25 24 21 19 18 18 19 19 21 22 22 21 21 19 17 17 18 20 19 19 19 18
29 28 27 26 26 26 27 27 27 26 25 23 23 24 24 23 22 21 19 19 25 29 32 34 32 33 36 38 41 43 41 35 32 29 27 33 41 40 35 35 35 34 30 27 24 21 19 19 19 19 20 20 22 25 25 24 26 28 28 26 25 25 26 26 23 21 19 18 19 20 20 21 22 21 21 21 19 16 17 18 20 20 20 20 18
32 31 30 29 28 28 28 28 27 26 24 23 22 23 24 23 22 21 19 17 19 24 30 34 33 33 35 38 42 45 44 39 37 34 30 30 38 42 39 36 37 38 34 30 27 24 22 20 19 19 19 19 20 22 23 23 24 26 27 27 27 26 26 26 23 21 19 18 20 23 23 21 20 20 20 20 18 17 18 19 20 20 19 18 18
32 33 32 31 30 29 28 27 26 25 24 22 22 22 22 22 21 21 19 17 15 19 27 32 35 35 35 37 40 43 43 41 40 39 36 32 33 38 39 38 40 41 37 32 28 26 23 21 21 20 19 20 21 22 23 22 23 25 25 26 26 25 25 25 23 22 20 18 19 23 24 21 20 20 20 20 19 18 19 19 18 19 18 17 17
31 32 32 32 31 30 29 27 26 25 24 23 22 22 22 22 22 21 19 18 16 17 23 29 33 35 35 35 36 38 39 39 39 39 38 35 33 33 35 39 43 44 42 37 32 28 24 21 21 22 21 21 21 21 22 22 23 24 24 24 25 24 24 24 24 22 20 19 18 20 22 21 20 21 21 21 20 20 21 20 19 18 18 18 18
30 31 31 31 31 30 29 27 26 26 25 24 23 22 22 23 22 21 19 19 18 17 20 26 30 34 34 34 34 34 35 36 37 37 35 34 34 31 30 35 42 46 48 48 41 31 24 22 21 21 21 22 22 22 22 22 23 24 23 23 23 23 24 25 24 23 20 20 20 19 19 19 19 19 20 21 22 21 20 20 21 20 20 19 19
29 30 30 31 31 29 28 28 27 27 26 25 24 23 23 22 21 21 20 18 18 18 18 22 28 33 34 34 33 33 34 34 35 35 33 33 35 33 31 34 40 44 47 50 46 33 22 21 22 23 24 24 22 23 23 22 23 23 23 23 23 23 23 23 24 23 20 19 21 21 19 17 17 18 19 20 23 23 21 20 20 21 21 20 18
28 29 30 31 31 29 28 28 27 27 27 26 25 24 24 23 21 20 20 18 17 17 17 20 25 29 32 34 34 33 35 36 34 34 34 34 33 34 34 33 35 39 42 44 44 34 24 21 22 24 28 26 22 22 23 22 22 22 22 23 23 23 23 22 22 22 21 20 21 21 20 17 17 19 20 19 20 23 23 22 20 20 20 19 18
27 28 30 32 31 29 28 28 27 26 26 26 26 26 25 23 22 21 19 18 17 16 16 18 21 25 29 32 34 34 35 37 37 35 34 32 31 33 36 33 29 33 39 39 37 33 26 22 21 23 28 28 23 22 22 21 21 21 21 22 23 25 25 23 22 22 22 21 20 20 20 20 19 19 20 19 18 19 21 23 23 22 21 20 20
26 27 30 32 32 31 29 29 28 26 25 25 25 25 25 23 22 20 18 18 17 16 16 16 17 22 28 31 32 35 35 34 36 37 36 34 33 33 37 37 30 31 37 37 34 30 26 22 21 24 29 28 24 22 21 20 19 20 20 20 22 24 25 23 21 22 23 21 20 20 20 20 20 20 21 19 18 18 19 20 20 20 20 21 21
27 28 31 32 31 31 30 28 28 27 26 25 25 24 23 22 21 20 18 18 17 16 16 16 16 18 26 28 29 32 34 31 31 35 37 37 36 35 36 36 32 30 34 36 35 31 28 26 24 26 30 30 26 24 22 20 19 19 20 21 21 23 25 23 21 21 22 21 20 21 21 21 21 22 23 21 20 20 20 20 20 19 19 19 20
28 29 31 30 29 30 30 28 27 27 26 25 24 24 23 21 19 19 18 17 17 16 16 16 15 14 21 28 30 31 33 33 30 29 31 33 33 33 32 33 32 30 32 37 38 33 29 30 29 30 33 35 32 28 25 24 21 21 23 25 23 22 23 24 22 21 21 21 21 22 23 24 24 23 23 22 21 21 21 21 21 21 22 20 19
28 29 29 28 27 30 31 29 27 27 27 26 24 24 24 21 18 17 18 17 16 16 15 16 16 14 15 23 29 30 32 35 32 28 29 31 31 31 32 33 34 32 32 36 38 34 31 31 31 33 36 38 39 36 32 30 26 24 26 28 27 24 23 24 24 22 22 22 22 22 23 25 26 24 23 23 22 22 23 23 22 22 23 24 21
28 29 29 28 28 29 30 29 28 27 26 26 25 24 23 21 18 17 17 16 15 14 15 16 16 15 15 16 21 25 29 34 35 31 28 29 30 31 33 34 34 33 34 37 38 39 40 39 37 38 40 41 43 41 37 34 31 29 27 27 28 28 24 23 23 23 22 22 21 22 22 25 27 26 24 25 24 23 24 25 25 26 27 29 27
28 29 30 29 29 29 30 30 30 28 26 26 26 25 22 20 18 18 17 16 15 14 14 16 16 14 15 14 15 20 24 29 32 32 30 30 30 31 32 34 34 33 33 36 39 42 44 45 43 44 45 45 46 45 43 41 37 34 31 28 29 29 27 26 25 23 23 22 22 22 21 23 29 29 26 25 25 25 26 27 28 28 29 32 33
28 28 29 29 28 29 31 31 29 28 27 26 25 24 22 18 17 18 18 16 15 15 14 15 15 14 13 13 13 17 21 23 25 28 30 30 30 31 33 33 34 33 30 32 35 37 38 42 44 44 44 45 46 46 47 46 42 37 34 30 30 31 31 31 29 27 26 25 25 24 23 25 32 33 29 26 26 26 27 28 29 30 30 32 34
27 28 29 28 27 29 31 30 27 25 25 25 24 22 20 16 14 16 16 15 14 15 14 14 15 15 13 12 12 14 18 20 20 21 24 26 27 29 31 30 31 32 32 32 33 32 33 38 43 44 43 43 43 44 45 45 43 39 33 30 31 31 29 27 28 28 28 28 28 29 29 31 33 34 32 28 27 29 31 30 30 31 32 33 34
27 28 28 28 28 31 34 30 25 23 23 23 23 22 19 14 13 14 15 14 14 14 14 14 13 13 12 12 11 10 13 18 20 20 22 24 25 27 28 27 27 29 30 32 32 32 32 35 38 38 37 39 41 41 40 41 41 35 30 28 30 31 27 22 23 25 24 24 26 29 34 36 35 34 34 31 30 32 34 34 32 32 33 34 34
26 27 27 28 28 31 33 30 25 24 24 22 22 22 19 16 14 14 14 14 15 14 14 14 13 12 12 11 10 9 8 13 17 19 21 23 25 25 25 25 25 26 27 29 31 32 32 32 33 32 32 34 37 37 36 36 34 30 28 29 31 32 28 23 23 25 25 24 26 27 30 34 37 37 37 37 37 36 36 35 34 33 34 35 35
24 25 28 29 28 28 31 32 31 29 25 23 22 20 19 18 17 15 14 14 14 14 15 17 16 15 15 14 13 11 9 10 13 17 19 22 24 25 24 23 23 24 25 26 27 28 29 29 30 31 32 32 33 34 34 33 31 30 31 32 33 32 30 26 24 24 23 24 27 29 28 28 31 35 38 41 40 38 37 36 35 34 35 36 37
23 25 29 31 29 28 30 33 34 33 28 23 21 18 17 17 16 15 15 15 15 16 17 18 18 18 17 17 16 15 13 11 11 13 15 18 21 24 24 24 24 24 25 25 24 25 26 27 27 29 31 32 32 32 32 31 32 32 33 34 34 31 28 26 25 24 23 24 27 30 31 29 29 32 37 39 39 38 38 36 34 35 35 36 37
22 25 29 31 30 31 32 33 35 36 31 26 22 19 17 16 14 14 16 16 16 17 19 19 19 20 20 20 19 18 17 16 14 13 13 14 16 19 20 22 23 24 25 25 25 25 26 26 26 27 28 30 31 30 29 31 32 32 33 34 32 26 23 24 25 26 27 27 26 29 32 33 34 35 36 37 38 38 37 35 34 34 33 35 37
22 25 29 31 32 33 31 31 35 38 35 31 27 22 19 18 16 15 15 16 17 19 19 20 20 20 21 21 22 22 21 20 19 17 16 15 15 15 17 18 21 22 23 24 24 25 26 26 27 27 26 28 30 29 28 30 33 33 34 34 31 26 24 27 29 30 31 30 28 29 30 32 35 37 36 36 37 37 36 35 35 33 32 34 34
21 25 29 31 33 34 29 26 32 38 38 36 33 28 24 23 21 20 19 18 17 19 20 20 20 20 21 21 22 23 24 24 23 22 21 19 17 16 16 16 18 19 20 22 22 22 24 25 25 25 25 28 32 31 28 29 33 35 34 33 33 32 30 31 32 32 31 29 29 30 31 31 33 36 36 36 36 37 37 38 37 36 36 36 32
21 23 27 30 33 35 32 27 28 34 38 38 36 34 31 30 28 26 25 23 21 21 21 21 21 21 22 22 23 24 25 26 26 25 25 24 22 20 18 17 17 17 18 20 21 21 22 23 24 25 27 29 32 31 29 30 34 36 35 34 35 35 34 34 33 33 32 30 29 31 32 31 31 32 32 32 33 35 39 40 39 37 38 39 35
21 23 26 29 31 33 34 28 23 29 36 38 37 37 35 33 32 30 29 28 26 26 26 26 26 26 26 26 25 25 26 27 27 27 27 27 26 24 21 19 18 18 17 18 20 22 22 24 27 30 31 30 29 29 31 32 34 35 35 34 35 35 35 34 33 34 34 30 28 29 30 29 29 31 31 30 30 31 33 35 35 35 36 39 39
20 21 25 28 30 32 34 31 23 25 33 36 36 37 35 32 31 30 29 29 28 29 30 30 30 30 31 31 30 28 27 27 28 28 28 29 29 28 25 22 20 19 18 17 17 18 20 23 26 28 29 27 26 28 30 32 33 35 35 34 34 34 34 33 34 35 34 30 26 24 26 28 31 33 32 30 30 30 29 30 31 31 32 35 37
19 21 24 27 28 30 33 33 27 25 30 34 35 35 34 32 31 30 29 29 28 29 30 32 34 34 34 34 35 34 31 29 29 29 28 28 28 27 26 24 22 20 19 18 17 17 18 20 22 24 25 25 25 24 23 25 30 34 34 33 33 34 34 34 35 36 35 31 28 28 29 32 34 34 32 31 30 30 30 30 30 31 32 33 36
19 21 24 26 27 29 32 33 31 28 30 33 33 34 35 33 32 32 31 31 31 30 30 32 34 36 36 36 36 36 34 30 27 27 29 28 25 23 23 24 22 21 21 21 20 18 17 18 20 21 21 22 22 20 19 20 23 28 30 31 32 33 33 33 34 35 35 34 34 34 35 36 36 36 35 34 34 34 34 33 32 33 34 34 35
20 21 24 25 26 28 30 32 32 31 30 31 32 34 34 33 32 32 33 32 31 30 30 31 33 35 36 34 33 34 33 30 26 23 25 25 23 21 20 20 21 21 21 22 22 21 20 19 18 18 16 15 15 15 15 15 17 20 24 27 28 28 29 30 31 31 32 32 32 33 33 34 35 35 36 37 38 38 37 36 35 36 36 35 36
20 21 23 25 25 27 29 30 31 30 29 29 31 33 34 33 31 32 32 32 30 28 27 28 29 31 31 30 30 29 29 29 25 21 21 20 20 20 19 18 20 21 21 21 21 20 19 18 16 16 15 13 12 12 12 14 14 15 18 22 24 25 25 25 26 25 25 26 27 28 28 29 30 31 33 35 37 37 37 37 37 37 37 36 36
21 20 22 24 24 25 27 28 28 28 27 27 29 32 33 32 30 30 31 31 30 28 26 27 28 29 30 29 28 27 26 26 22 18 20 22 22 21 18 16 19 23 24 24 22 18 16 17 16 16 16 14 12 12 15 18 19 18 19 22 25 26 25 23 22 21 20 22 24 25 26 27 27 27 28 30 31 32 33 33 34 34 34 35 36
20 20 21 23 23 24 25 26 26 26 25 26 28 31 33 32 30 30 30 31 31 30 29 30 30 31 31 29 27 26 24 23 20 18 22 26 25 24 20 17 19 22 24 25 25 23 21 20 18 19 20 19 17 17 19 21 22 22 23 24 26 27 27 25 22 21 21 22 24 25 26 27 27 27 27 28 29 29 29 30 31 31 31 32 34
20 21 22 22 22 22 23 24 25 24 24 26 28 30 32 31 29 28 29 30 30 30 30 31 31 32 32 29 24 19 13 14 19 19 22 24 23 22 20 19 19 21 22 23 24 25 26 26 24 24 25 25 25 25 26 26 26 27 28 27 27 27 28 26 23 22 23 25 26 26 27 26 25 23 23 25 26 26 26 28 30 30 30 31 32
Wind_Direction
293 301 308 318 318 317 323 332 328 286 253 248 239 228 228 226 226 230 227 222 215 209 211 209 208 213 214 216 219 221 218 212 216 220 218 218 216 214 216 217 217 215 213 212 212 208 206 208 209 209 209 213 214 211 213 213 211 211 211 216 219 219 216 212 210 208 206 212 219 226 234 241 241 241 242 239 239 242 239 236 236 235 236 242 246
295 298 303 312 321 320 317 322 332 315 265 249 243 235 231 227 227 230 225 220 216 209 208 208 217 226 226 231 232 226 221 218 217 218 221 222 218 216 217 216 215 215 213 213 214 212 208 207 210 211 208 213 215 213 215 215 213 212 208 211 214 218 218 214 213 210 205 207 215 225 234 242 245 246 246 244 242 243 244 244 243 239 236 238 242
305 303 304 307 317 323 317 314 319 316 284 254 247 243 240 234 231 232 228 224 221 217 218 221 230 236 236 241 238 227 222 223 220 217 222 224 224 224 223 219 216 215 213 213 215 214 211 209 211 211 209 212 215 215 217 216 215 213 209 209 208 213 216 216 218 216 207 205 208 216 228 233 242 248 246 245 246 246 247 245 244 243 238 236 238
317 312 310 311 318 325 323 318 314 309 297 266 250 245 242 239 237 235 232 230 226 224 229 233 237 239 238 237 234 229 225 220 217 215 220 226 230 235 234 226 218 214 214 212 213 215 211 210 212 212 212 214 215 217 218 217 217 215 213 212 206 206 209 212 220 220 208 200 207 215 221 227 236 241 240 243 247 246 244 241 241 243 238 234 234
327 321 317 316 320 325 326 323 319 311 301 280 254 245 242 240 240 239 236 234 229 229 235 235 234 234 232 227 226 228 222 214 215 218 223 227 231 238 237 229 220 217 219 216 212 213 211 209 210 210 213 216 216 218 220 219 219 217 214 213 208 205 204 206 216 218 211 203 205 212 214 227 236 236 235 234 234 234 236 235 238 241 236 233 233
336 329 326 325 324 326 327 326 323 315 304 288 263 247 243 241 239 238 239 238 233 233 236 232 230 232 230 227 223 219 213 213 223 229 233 235 236 239 235 227 219 219 223 220 212 209 209 210 210 207 210 218 217 218 220 218 218 218 214 211 210 206 202 206 214 217 215 210 209 213 214 224 228 223 228 228 223 226 234 235 236 239 237 235 236
343 338 335 334 333 332 334 334 328 320 308 293 275 253 241 238 237 235 238 241 236 235 236 231 229 229 230 232 224 217 219 223 232 240 245 247 245 241 234 224 216 215 222 222 215 211 209 211 213 208 207 216 219 216 215 214 215 217 214 210 210 207 203 207 215 217 217 216 216 219 223 230 229 220 225 241 242 235 240 243 238 240 239 237 239
344 342 338 337 337 337 338 338 335 326 313 296 284 266 242 233 235 235 236 240 238 236 234 230 229 227 228 229 222 223 233 239 241 243 245 247 242 233 228 222 216 213 218 222 218 214 213 211 212 211 208 213 219 217 214 212 213 216 216 213 210 209 207 206 211 217 218 217 219 222 226 232 235 233 236 249 257 250 250 249 243 241 239 239 243
342 341 338 336 335 336 336 337 337 333 322 306 292 277 250 232 232 234 233 234 237 237 234 230 231 230 228 228 229 234 241 244 243 239 234 234 230 224 222 219 217 214 212 220 220 216 218 216 213 214 210 210 216 218 215 212 212 216 218 216 211 211 212 208 206 214 219 217 218 223 227 230 235 238 239 241 246 251 252 251 244 236 242 253 258
338 338 337 335 333 333 334 334 338 339 337 325 308 290 262 236 228 231 232 230 231 237 238 233 232 233 230 230 235 239 242 241 237 232 229 227 222 220 221 218 217 218 215 218 220 217 220 220 219 221 218 211 213 215 216 215 213 216 219 218 215 213 215 214 209 212 220 219 219 225 228 228 229 232 235 233 237 245 251 255 249 238 251 265 267
333 334 334 334 333 332 333 335 339 343 345 340 329 311 277 243 230 229 231 230 227 232 238 235 231 232 234 234 236 238 239 238 232 227 228 227 222 219 220 220 218 219 220 218 215 214 218 219 219 224 226 220 214 213 216 216 214 216 219 222 223 218 216 218 215 214 220 223 226 227 226 224 225 226 228 228 233 241 246 255 257 251 258 260 257
331 331 333 333 333 333 335 337 340 342 345 346 341 330 305 256 236 231 231 230 227 228 234 235 230 231 235 237 236 236 236 236 231 229 227 223 221 219 217 218 217 218 219 217 215 213 217 220 217 220 226 226 221 216 214 214 215 216 218 222 226 226 223 221 222 221 221 225 229 231 230 229 229 228 228 229 233 240 244 252 256 255 259 259 251
330 331 332 332 332 331 333 335 337 339 341 344 346 340 329 294 244 231 231 230 228 228 230 234 234 233 234 235 235 234 234 234 231 230 229 224 222 221 217 215 215 215 215 215 215 216 221 222 215 214 221 224 225 222 218 215 213 215 216 219 222 225 226 223 225 227 227 229 231 233 234 233 232 231 229 231 233 237 244 251 254 254 257 261 256
331 331 331 331 331 329 329 332 333 334 335 338 344 341 334 322 274 235 229 230 230 229 228 231 233 233 234 234 233 232 231 232 229 226 226 226 224 223 220 215 215 218 220 219 215 222 233 230 217 215 214 215 222 223 221 218 216 216 216 218 221 223 225 225 227 230 230 231 232 234 236 235 235 232 229 232 233 235 243 250 256 258 257 257 254
333 330 329 329 329 328 328 330 329 329 330 332 335 336 335 330 306 251 229 227 230 230 229 230 231 231 232 233 232 230 229 229 229 226 225 228 231 229 224 219 220 225 225 221 216 227 241 236 222 221 218 215 221 222 221 221 219 219 217 219 224 225 225 226 228 229 230 231 233 235 237 237 238 235 233 234 234 235 239 244 249 254 257 255 250
334 331 329 328 328 329 328 328 327 326 326 327 328 331 336 335 322 283 237 224 227 231 230 231 232 230 231 233 231 228 228 227 228 227 225 229 234 232 227 224 224 225 220 217 221 231 238 232 221 223 222 219 223 223 222 222 221 220 219 222 226 227 227 227 227 229 230 232 235 236 237 238 238 238 239 239 238 237 237 238 242 247 254 256 253
334 331 329 327 327 329 328 327 326 324 324 324 325 327 333 337 329 305 257 227 223 229 230 230 232 230 228 230 230 228 228 227 227 229 227 227 228 227 229 233 232 231 225 225 232 233 230 223 216 220 220 219 224 225 225 224 223 223 221 222 225 227 228 227 227 230 231 231 233 235 237 238 238 238 240 242 241 241 238 237 239 243 249 254 255
333 332 331 328 327 328 328 325 323 323 322 322 323 324 327 335 331 315 283 240 225 228 232 230 231 230 227 229 230 228 227 226 227 229 228 227 226 225 229 236 238 237 233 232 234 231 224 219 217 221 222 223 225 226 227 225 224 226 226 225 227 228 229 230 229 230 231 231 232 233 234 237 238 237 238 241 241 241 241 240 240 241 245 249 251
335 334 333 330 327 326 326 324 322 323 322 321 322 323 324 329 331 322 301 260 233 231 234 231 231 233 231 230 230 230 229 227 227 227 226 228 228 227 229 234 239 241 237 233 229 226 224 221 221 226 227 226 225 225 226 224 223 227 229 229 228 227 229 232 232 231 230 230 230 231 232 234 237 237 238 241 242 241 243 243 242 242 244 247 248
338 335 332 330 326 325 324 323 322 322 321 322 321 322 323 323 327 325 308 276 246 237 236 232 231 235 235 232 230 230 230 230 231 230 225 225 227 226 226 229 237 241 239 236 233 233 233 229 227 228 225 224 225 224 224 223 224 227 228 230 229 228 230 232 233 233 231 228 230 233 233 231 233 236 237 239 242 243 243 245 245 244 244 247 247
338 336 333 329 326 324 323 322 321 320 320 322 321 321 321 318 321 326 315 293 267 244 238 234 231 233 238 237 232 230 229 231 235 235 230 227 227 228 225 224 231 238 239 239 239 236 233 231 233 230 222 221 222 225 226 223 223 226 227 229 230 229 230 231 231 232 231 228 230 233 233 231 231 234 236 238 241 243 244 245 245 245 244 245 247
338 337 334 330 327 325 323 322 322 321 321 322 321 320 320 318 319 325 320 306 285 249 235 236 234 232 236 239 237 232 229 230 234 235 234 231 230 231 229 226 229 234 238 238 236 233 231 235 241 235 222 218 219 222 224 221 222 225 227 228 229 226 228 230 230 229 229 229 229 230 231 231 231 233 235 237 238 240 244 245 244 244 244 243 245
337 336 334 331 328 326 325 324 323 322 321 322 322 320 319 319 318 321 322 311 295 265 236 232 235 234 234 237 238 234 230 230 231 232 232 232 231 228 229 230 228 228 230 232 234 238 237 238 244 241 229 224 223 222 220 218 220 224 226 226 225 225 226 229 230 228 227 229 231 232 231 229 230 232 234 238 240 238 239 242 244 244 244 243 243
336 337 336 334 331 328 327 326 324 323 322 321 322 320 317 317 315 316 320 316 303 282 248 227 230 234 233 234 234 231 230 229 229 228 226 229 231 227 226 232 231 227 226 229 234 239 237 236 244 246 239 231 226 226 224 219 218 222 226 228 227 227 227 228 230 229 226 227 231 234 233 229 229 233 236 241 247 248 243 240 242 243 245 247 246
334 337 337 336 335 332 329 327 325 323 322 320 320 319 316 316 313 312 318 320 312 293 263 233 227 231 232 233 232 230 230 228 226 225 225 228 231 226 224 231 232 229 227 229 233 233 227 233 246 250 246 238 229 228 226 219 217 220 224 228 229 230 230 228 229 230 226 224 228 232 232 228 227 232 235 237 244 251 253 250 247 244 244 247 249
335 337 337 337 338 335 331 329 327 324 322 320 319 319 317 314 312 311 316 319 317 304 276 244 231 231 230 231 232 230 230 230 227 224 223 225 225 220 222 226 225 228 231 230 232 230 222 229 246 251 247 240 228 224 224 219 219 221 224 229 231 232 232 230 229 231 228 223 223 225 228 228 227 229 232 232 233 240 247 251 252 251 248 245 246
339 337 336 339 341 338 334 332 329 326 324 321 319 319 317 315 312 312 315 317 317 314 292 263 247 238 229 226 228 230 231 232 230 227 223 221 221 224 229 231 228 230 234 231 229 229 225 233 252 255 248 239 224 217 220 220 220 222 223 226 228 228 230 230 228 229 228 225 222 221 223 226 225 228 232 230 229 233 240 244 245 247 247 244 245
341 338 336 339 341 340 337 334 331 329 327 324 322 320 318 316 314 313 316 317 316 317 306 289 273 246 227 223 226 230 233 233 231 231 228 224 226 231 234 234 230 227 229 226 221 222 225 232 246 255 252 243 227 215 217 220 219 221 227 229 226 224 226 228 227 227 226 223 222 224 227 226 227 235 241 239 239 243 247 247 244 242 241 240 243
341 339 337 338 340 340 338 337 334 331 330 328 325 324 322 320 320 317 316 318 316 314 311 306 297 260 228 224 225 227 232 234 230 229 228 226 227 229 229 229 227 224 223 221 216 214 219 224 233 244 249 246 238 228 232 239 233 230 238 241 233 223 223 227 227 226 226 223 222 225 230 232 234 241 248 249 250 253 254 252 250 249 246 241 240
342 338 336 337 340 341 340 338 336 333 332 330 327 327 325 324 325 320 314 314 317 314 309 311 311 294 257 236 226 223 229 232 230 224 222 223 224 223 223 225 227 226 223 222 217 213 217 223 228 233 237 242 243 240 245 253 251 246 248 246 239 228 221 224 225 224 223 223 222 224 229 235 239 243 247 249 250 252 254 254 252 251 251 247 242
341 337 335 335 337 339 340 339 337 335 333 331 329 328 328 326 322 320 317 314 316 315 310 311 314 310 296 265 232 224 230 233 232 226 220 221 220 218 219 222 225 225 222 220 218 216 221 227 228 225 225 233 240 241 245 252 255 256 252 245 241 235 225 221 222 223 224 223 222 224 227 234 239 241 244 247 249 249 250 252 251 249 250 250 246
340 337 336 335 335 336 337 336 335 334 332 331 330 329 331 329 320 318 321 319 316 316 313 313 315 314 309 289 246 229 232 233 234 231 225 222 221 218 218 220 221 222 220 219 219 219 221 224 223 221 224 230 235 239 244 247 250 255 252 241 237 235 231 227 223 222 224 224 224 225 225 233 242 245 246 248 249 248 247 247 248 248 248 250 250
340 337 337 336 333 333 333 333 332 331 330 332 331 327 330 334 327 320 322 321 318 315 312 313 314 313 315 306 274 251 242 237 238 237 234 232 229 222 218 218 218 217 214 216 219 218 219 221 221 223 229 232 233 236 240 241 243 249 248 238 231 230 232 233 231 229 228 226 226 226 225 234 245 251 254 254 252 251 249 245 244 246 246 246 247
339 338 337 336 333 334 336 336 335 333 332 333 333 329 330 337 335 327 323 320 318 314 313 317 315 312 317 318 302 274 253 245 246 247 244 243 239 229 222 219 218 216 213 214 217 217 218 220 223 227 232 233 232 234 236 236 239 244 241 231 226 227 228 231 233 235 234 232 234 239 242 245 248 251 254 255 256 258 256 250 244 243 244 244 243
341 339 338 336 335 340 343 342 339 338 335 336 338 336 336 343 343 333 325 320 319 318 318 316 306 302 311 321 321 302 263 250 250 247 242 243 242 236 228 221 217 217 216 216 218 219 218 219 222 225 230 232 232 234 235 233 233 233 227 223 222 223 223 224 226 228 230 231 235 242 249 252 253 255 256 258 259 261 259 255 249 243 243 244 244
342 340 339 339 340 345 348 345 343 342 339 340 344 344 345 349 346 337 330 323 319 317 312 303 290 284 291 297 306 315 293 268 261 252 242 239 242 241 234 226 221 218 218 218 219 220 220 219 221 223 227 231 233 234 237 236 229 220 217 221 222 222 223 224 224 225 227 231 232 235 242 249 252 254 257 259 260 257 254 253 251 248 245 245 245
341 340 346 349 347 349 353 353 352 350 346 345 349 351 350 348 344 341 338 331 325 319 307 297 289 286 285 281 280 287 290 285 278 267 254 246 246 245 240 233 227 222 219 218 217 219 220 220 222 225 228 231 231 230 234 235 228 221 220 223 223 222 223 225 227 229 229 231 234 234 234 239 244 247 250 254 254 251 248 247 247 248 248 248 249
342 343 353 359 357 356 358 360 359 357 354 349 347 349 350 347 344 344 341 335 328 322 313 302 293 286 284 283 280 276 274 276 280 277 266 256 252 251 248 242 237 231 227 222 218 219 220 222 224 226 227 229 229 230 233 233 227 223 224 225 224 223 223 225 228 231 231 231 235 238 237 235 237 242 247 248 246 244 244 242 243 246 246 249 255
343 349 359 4 4 3 3 4 2 0 358 354 350 351 351 348 346 347 347 345 339 331 325 317 304 290 283 283 282 279 273 269 271 273 268 262 257 255 253 248 244 240 235 229 224 223 223 224 226 225 226 228 229 229 231 229 225 223 224 226 226 224 223 227 230 233 235 235 234 240 244 243 241 242 244 243 239 239 241 240 241 242 241 247 255
344 353 2 5 6 7 5 2 0 0 0 360 359 358 355 352 350 348 349 352 351 346 340 332 322 307 294 285 281 280 276 269 267 266 263 259 255 252 251 249 246 243 239 232 227 225 225 225 225 225 226 229 230 229 229 227 226 226 226 226 224 221 222 228 233 235 236 235 234 237 243 247 246 244 242 241 240 242 244 245 242 237 237 247 254
345 354 1 3 6 9 6 359 358 1 2 2 2 2 359 357 356 352 352 353 351 349 346 339 332 322 309 296 285 281 278 271 265 263 260 258 255 252 250 247 243 240 237 232 228 227 226 225 224 225 228 230 231 229 226 228 230 230 228 226 222 221 225 229 234 236 236 236 237 237 239 245 249 248 246 245 245 246 247 249 246 241 240 247 250
346 354 0 1 4 9 9 2 359 3 4 3 5 6 3 360 358 354 352 351 348 345 344 339 332 324 315 305 293 285 280 274 268 263 260 258 256 255 253 249 245 241 237 233 230 228 227 225 222 222 226 230 231 229 226 228 230 230 228 226 223 223 226 230 234 239 240 239 239 240 242 248 254 256 255 254 253 251 250 251 252 249 247 249 249
345 352 358 2 4 7 8 4 357 360 5 5 6 9 7 2 359 356 352 349 345 341 339 336 331 324 316 308 299 289 281 275 270 265 260 256 254 253 253 251 247 244 240 235 232 229 229 228 225 224 226 227 228 229 227 226 229 233 232 228 225 225 226 229 234 241 244 244 243 246 249 253 257 261 263 264 262 259 256 256 258 256 253 252 254
344 349 355 2 4 5 7 7 360 358 4 7 7 7 7 3 1 359 354 350 344 339 336 332 328 323 317 310 303 294 284 276 270 266 262 257 252 250 250 250 246 241 238 234 231 230 229 229 229 229 229 227 226 229 226 221 226 235 236 228 224 225 226 230 235 241 244 245 245 246 249 252 255 258 262 266 268 267 264 263 262 261 259 257 256
343 348 353 0 4 3 4 6 4 0 4 8 8 5 4 4 2 359 355 351 348 344 339 333 328 322 316 310 304 296 288 279 270 264 260 257 252 249 247 247 243 239 237 234 232 231 229 228 229 229 228 227 226 226 224 221 225 233 234 229 226 226 227 231 237 241 243 244 243 242 243 247 250 253 258 263 265 265 266 266 264 264 263 261 259
345 348 352 358 4 4 2 3 4 3 5 9 8 6 5 3 1 357 354 353 353 349 342 335 328 320 314 309 303 297 291 283 272 263 257 253 250 247 246 245 242 239 240 241 238 233 230 230 231 231 230 228 227 227 229 233 236 238 236 233 232 233 232 234 238 241 242 244 244 244 245 247 250 254 258 260 261 263 266 268 267 266 264 261 259
347 348 351 357 3 4 1 1 2 4 5 7 7 6 5 3 0 357 354 355 355 349 340 334 327 318 313 310 304 296 289 280 270 258 251 248 244 240 239 240 240 238 240 244 244 241 239 237 236 235 233 231 233 237 241 244 246 248 248 245 243 242 242 242 244 245 247 249 250 251 251 252 253 256 259 261 263 265 266 265 264 263 263 262 260
345 347 350 357 2 3 1 1 1 2 4 6 6 5 4 2 1 359 356 356 358 351 341 336 330 324 322 318 309 298 286 276 265 250 241 237 233 231 232 235 234 232 233 237 242 245 246 245 246 249 251 250 248 246 244 244 244 247 253 256 254 249 247 247 249 252 255 258 261 261 261 259 257 256 257 259 261 263 262 261 259 258 258 259 260
343 345 350 356 0 1 0 0 0 1 4 6 6 4 2 2 2 1 360 0 1 357 352 349 344 340 338 331 316 299 279 264 254 239 227 221 213 209 212 220 223 223 224 227 232 237 239 241 244 247 248 248 244 234 235 244 248 245 246 254 259 258 257 256 257 260 262 264 264 265 265 264 263 261 259 259 261 263 264 264 262 259 258 258 258
341 347 352 355 357 358 358 359 0 2 4 8 8 5 2 3 4 5 6 6 3 1 359 358 356 355 354 348 330 307 276 245 227 218 215 212 205 198 199 206 214 219 224 228 232 236 238 237 236 237 238 239 237 234 238 245 251 253 251 254 258 262 265 266 267 270 269 266 265 266 266 268 269 269 267 267 267 269 271 272 272 270 267 264 263
345 351 352 352 354 355 357 359 1 5 9 11 10 6 3 4 6 9 13 12 9 6 4 3 5 7 10 11 2 336 291 225 201 198 199 199 198 196 199 209 220 227 231 234 236 240 242 241 238 238 242 244 243 243 245 247 250 255 258 259 261 264 267 270 273 275 273 270 269 269 269 270 270 269 268 268 268 270 272 274 276 276 274 271 270